EW4993 Weather Reports


Display with metric or nautical units.
time (UTC)temp
F
wind
direction
speed
MPH
gust
MPH
rain 1hr
in
rain 24hr
in
rain mn
in
humidity
%
barometer
mb
20260506190007 65 45 6.0 15.0 0.00 0.00 0.00 81 987.2
20260506184552 66 33 6.0 14.0 0.00 0.00 0.00 80 987.1
20260506183051 67 44 3.0 12.0 0.00 0.00 0.00 80 987.1
20260506181530 67 31 7.0 13.0 0.00 0.00 0.00 81 986.9
20260506180030 66 29 5.0 12.0 0.00 0.00 0.00 82 986.9
20260506174510 65 38 5.0 11.0 0.00 0.00 0.00 83 986.5
20260506173017 63 63 3.0 9.0 0.00 0.00 0.00 82 986.8
20260506171612 61 102 4.0 9.0 0.00 0.00 0.00 79 986.7
20260506170057 60 113 4.0 10.0 0.00 0.00 0.00 78 986.8
20260506164601 59 71 9.0 18.0 0.00 0.00 0.00 76 987.0
20260506163155 58 42 13.0 18.0 0.00 0.00 0.00 76 986.7
20260506161624 57 22 10.0 18.0 0.00 0.00 0.00 77 987.8
20260506160058 58 38 11.0 22.0 0.00 0.00 0.00 77 988.6
20260506154552 59 16 10.0 22.0 0.00 0.00 0.00 78 988.6
20260506153048 60 17 9.0 20.0 0.00 0.00 0.00 78 988.1
20260506151531 60 27 13.0 21.0 0.00 0.00 0.00 77 987.7
20260506150028 61 44 13.0 21.0 0.00 0.00 0.00 77 986.7
20260506144527 62 34 10.0 17.0 0.00 0.00 0.00 76 986.5
20260506143025 64 11 12.0 20.0 0.00 0.00 0.00 75 986.4
20260506141515 64 15 10.0 17.0 0.00 0.00 0.00 75 985.7
20260506140014 66 26 13.0 19.0 0.00 0.00 0.00 75 985.7
20260506134508 69 17 10.0 14.0 0.00 0.00 0.00 75 985.0
20260506133006 74 177 0.0 0.0 0.00 0.00 0.00 67 984.8
20260506131605 74 177 0.0 0.0 0.00 0.00 0.00 67 984.5
20260506130140 73 178 0.0 0.0 0.00 0.00 0.00 68 984.4
20260506124601 73 179 0.0 4.0 0.00 0.00 0.00 68 984.2
20260506123041 73 189 1.0 4.0 0.00 0.00 0.00 68 984.1
20260506121537 72 197 0.0 0.0 0.00 0.00 0.00 69 983.9
20260506120021 72 207 0.0 0.0 0.00 0.00 0.00 69 983.9
20260506114519 72 207 0.0 0.0 0.00 0.00 0.00 70 983.9
20260506113002 72 207 0.0 0.0 0.00 0.00 0.00 70 984.0
20260506111559 73 207 0.0 0.0 0.00 0.00 0.00 70 983.9
20260506110051 73 207 0.0 0.0 0.00 0.00 0.00 70 983.8
20260506104547 73 207 0.0 0.0 0.00 0.00 0.00 70 983.8
20260506103022 73 209 0.0 0.0 0.00 0.00 0.00 71 983.5
20260506101533 73 211 0.0 5.0 0.00 0.00 0.00 71 983.4
20260506100005 73 216 4.0 6.0 0.00 0.00 0.00 71 983.2
20260506094510 74 210 3.0 6.0 0.00 0.00 0.00 71 983.0
20260506093002 74 192 4.0 6.0 0.00 0.00 0.00 71 982.9
20260506091502 74 180 4.0 8.0 0.00 0.00 0.00 72 982.9
20260506084624 74 221 4.0 9.0 0.00 0.00 0.00 73 982.9
20260506084502 74 227 4.0 6.0 0.00 0.00 0.00 73 982.9
20260506083100 74 222 3.0 8.0 0.00 0.00 0.00 74 982.9
20260506081602 74 195 4.0 10.0 0.00 0.00 0.00 74 982.8
20260506073036 74 219 5.0 12.0 0.00 0.00 0.00 74 983.0
20260506071521 74 209 6.0 14.0 0.00 0.00 0.00 74 982.8
20260506061543 74 200 6.0 14.0 0.00 0.00 0.00 74 982.7
20260506044634 74 184 6.0 12.0 0.00 0.00 0.00 75 982.9
20260506043028 74 201 5.0 10.0 0.00 0.00 0.00 75 982.9
20260506041524 74 213 6.0 10.0 0.00 0.00 0.00 75 982.7
20260506040028 74 198 5.0 8.0 0.00 0.00 0.00 76 982.6
20260506034542 74 190 3.0 7.0 0.00 0.00 0.00 76 982.6
20260506033017 74 199 5.0 10.0 0.00 0.00 0.00 77 982.3
20260506031516 74 194 3.0 6.0 0.00 0.00 0.00 78 982.2
20260506030011 75 186 3.0 7.0 0.00 0.00 0.00 79 981.9
20260506024509 75 191 3.0 9.0 0.00 0.00 0.00 80 981.7
20260506023107 75 187 4.0 8.0 0.00 0.00 0.00 80 981.3
20260506021547 76 194 3.0 7.0 0.00 0.00 0.00 81 981.0
20260506020027 76 191 2.0 5.0 0.00 0.00 0.00 81 981.0
20260506014529 76 198 3.0 8.0 0.00 0.00 0.00 81 980.8
20260506013013 77 192 2.0 9.0 0.00 0.00 0.00 82 980.7
20260506011514 78 186 3.0 9.0 0.00 0.00 0.00 81 980.6
20260506010007 78 192 3.0 9.0 0.00 0.00 0.00 81 980.6
20260506004505 79 190 4.0 9.0 0.00 0.00 0.00 80 980.6
20260506003002 80 198 3.0 7.0 0.00 0.00 0.00 80 980.6
20260506001600 80 197 4.0 8.0 0.00 0.00 0.00 79 980.7
20260506000058 80 208 6.0 10.0 0.00 0.00 0.00 78 980.7
20260505234635 81 210 5.0 11.0 0.00 0.00 0.00 77 980.7
20260505233039 81 242 7.0 11.0 0.00 0.00 0.00 76 980.5
20260505231536 81 196 4.0 8.0 0.00 0.00 0.00 77 980.5
20260505230014 81 185 6.0 13.0 0.00 0.00 0.00 75 980.2
20260505224512 82 229 6.0 11.0 0.00 0.00 0.00 75 980.3
20260505223057 82 185 7.0 12.0 0.00 0.00 0.00 75 980.3
20260505221555 81 215 9.0 15.0 0.00 0.00 0.00 75 980.1
20260505220051 82 177 8.0 15.0 0.00 0.00 0.00 74 980.3
20260505214539 82 225 9.0 14.0 0.00 0.00 0.00 73 980.4
20260505213014 83 233 9.0 19.0 0.00 0.00 0.00 73 980.6
20260505211511 82 220 10.0 19.0 0.00 0.00 0.00 73 980.8
20260505210052 82 244 12.0 18.0 0.00 0.00 0.00 74 981.0
20260505204550 82 221 10.0 20.0 0.00 0.00 0.00 75 981.1
20260505203031 81 210 11.0 19.0 0.00 0.00 0.00 76 981.3
20260505201531 81 206 11.0 17.0 0.00 0.00 0.00 76 981.6
20260505200012 81 230 8.0 19.0 0.00 0.00 0.00 77 981.6
20260505194527 80 196 10.0 16.0 0.00 0.00 0.00 76 981.8
20260505193055 80 219 9.0 17.0 0.00 0.00 0.00 76 982.0
20260505191556 80 206 10.0 17.0 0.00 0.00 0.00 76 982.0